| time (UTC) | temp F | wind direction | speed MPH | gust MPH | rain 1hr in | rain 24hr in | rain mn in | humidity % | barometer mb |
| 20260904211552 | 76 | 265 | 18.0 | 23.0 | 0.00 | 0.00 | 0.00 | 30 | 1012.0 |
| 20260904210051 | 76 | 325 | 12.0 | 22.0 | 0.00 | 0.00 | 0.00 | 30 | 1011.8 |
| 20260904204553 | 75 | 286 | 16.0 | 22.0 | 0.00 | 0.00 | 0.00 | 30 | 1011.7 |
| 20260904203047 | 75 | 288 | 15.0 | 22.0 | 0.00 | 0.00 | 0.00 | 30 | 1011.6 |
| 20260904201554 | 75 | 273 | 17.0 | 24.0 | 0.00 | 0.00 | 0.00 | 31 | 1011.4 |
| 20260904200055 | 74 | 262 | 13.0 | 24.0 | 0.00 | 0.00 | 0.00 | 32 | 1011.5 |
| 20260904194604 | 73 | 288 | 12.0 | 18.0 | 0.00 | 0.00 | 0.00 | 34 | 1011.3 |
| 20260904193046 | 72 | 289 | 13.0 | 19.0 | 0.00 | 0.00 | 0.00 | 37 | 1011.2 |
| 20260904191551 | 70 | 260 | 12.0 | 17.0 | 0.00 | 0.00 | 0.00 | 39 | 1011.1 |
| 20260904190050 | 69 | 261 | 14.0 | 17.0 | 0.00 | 0.00 | 0.00 | 38 | 1010.9 |
| 20260904184556 | 69 | 296 | 11.0 | 17.0 | 0.00 | 0.00 | 0.00 | 39 | 1011.1 |
| 20260904183055 | 68 | 272 | 12.0 | 19.0 | 0.00 | 0.00 | 0.00 | 40 | 1010.9 |
| 20260904181608 | 68 | 261 | 14.0 | 19.0 | 0.00 | 0.00 | 0.00 | 40 | 1010.9 |
| 20260904180100 | 68 | 247 | 13.0 | 17.0 | 0.00 | 0.00 | 0.00 | 40 | 1010.7 |
| 20260904174546 | 67 | 258 | 12.0 | 18.0 | 0.00 | 0.00 | 0.00 | 42 | 1010.4 |
| 20260904173050 | 65 | 259 | 9.0 | 12.0 | 0.00 | 0.00 | 0.00 | 42 | 1010.5 |
| 20260904171613 | 64 | 242 | 6.0 | 11.0 | 0.00 | 0.00 | 0.00 | 44 | 1010.1 |
| 20260904170057 | 63 | 265 | 7.0 | 13.0 | 0.00 | 0.00 | 0.00 | 49 | 1010.1 |
| 20260904164611 | 62 | 281 | 12.0 | 15.0 | 0.00 | 0.00 | 0.00 | 49 | 1010.1 |
| 20260904163051 | 62 | 265 | 13.0 | 16.0 | 0.00 | 0.00 | 0.00 | 47 | 1009.9 |
| 20260904161559 | 62 | 263 | 12.0 | 17.0 | 0.00 | 0.00 | 0.00 | 47 | 1009.5 |
| 20260904160045 | 65 | 236 | 5.0 | 9.0 | 0.00 | 0.00 | 0.00 | 43 | 1009.4 |
| 20260904154553 | 64 | 55 | 0.0 | 1.0 | 0.00 | 0.00 | 0.00 | 45 | 1008.9 |
| 20260904153057 | 64 | 55 | 4.0 | 6.0 | 0.00 | 0.00 | 0.00 | 45 | 1008.2 |
| 20260904151557 | 63 | 80 | 4.0 | 8.0 | 0.00 | 0.00 | 0.00 | 47 | 1008.2 |
| 20260904150052 | 62 | 80 | 5.0 | 8.0 | 0.00 | 0.00 | 0.00 | 47 | 1008.1 |
| 20260904144551 | 62 | 90 | 4.0 | 9.0 | 0.00 | 0.00 | 0.00 | 47 | 1008.0 |
| 20260904143102 | 62 | 97 | 7.0 | 9.0 | 0.00 | 0.00 | 0.00 | 47 | 1008.0 |
| 20260904141559 | 59 | 84 | 4.0 | 8.0 | 0.00 | 0.00 | 0.00 | 51 | 1008.2 |
| 20260904140053 | 55 | 51 | 3.0 | 6.0 | 0.00 | 0.00 | 0.00 | 60 | 1008.5 |
| 20260904134552 | 54 | 11 | 3.0 | 6.0 | 0.00 | 0.00 | 0.00 | 61 | 1008.5 |
| 20260904133106 | 53 | 40 | 2.0 | 5.0 | 0.00 | 0.00 | 0.00 | 62 | 1008.4 |
| 20260904131559 | 52 | 40 | 5.0 | 7.0 | 0.00 | 0.00 | 0.00 | 64 | 1008.1 |
| 20260904130054 | 52 | 22 | 3.0 | 8.0 | 0.00 | 0.00 | 0.00 | 63 | 1008.1 |
| 20260904124548 | 52 | 49 | 6.0 | 10.0 | 0.00 | 0.00 | 0.00 | 63 | 1007.8 |
| 20260904123058 | 52 | 42 | 6.0 | 9.0 | 0.00 | 0.00 | 0.00 | 63 | 1007.7 |
| 20260904121649 | 52 | 42 | 3.0 | 7.0 | 0.00 | 0.00 | 0.00 | 61 | 1007.9 |
| 20260904120105 | 53 | 42 | 5.0 | 9.0 | 0.00 | 0.00 | 0.00 | 61 | 1007.7 |
| 20260904114604 | 54 | 42 | 5.0 | 9.0 | 0.00 | 0.00 | 0.00 | 59 | 1007.8 |
| 20260904113121 | 54 | 45 | 8.0 | 12.0 | 0.00 | 0.00 | 0.00 | 58 | 1008.0 |
| 20260904111626 | 54 | 46 | 9.0 | 12.0 | 0.00 | 0.00 | 0.00 | 58 | 1008.1 |
| 20260904110059 | 54 | 35 | 7.0 | 12.0 | 0.00 | 0.00 | 0.00 | 58 | 1008.2 |
| 20260904104615 | 54 | 37 | 6.0 | 11.0 | 0.00 | 0.00 | 0.00 | 58 | 1008.4 |
| 20260904103059 | 55 | 35 | 7.0 | 12.0 | 0.00 | 0.00 | 0.00 | 58 | 1008.5 |
| 20260904101558 | 54 | 34 | 6.0 | 10.0 | 0.00 | 0.00 | 0.00 | 59 | 1008.6 |
| 20260904100118 | 54 | 30 | 5.0 | 9.0 | 0.00 | 0.00 | 0.00 | 59 | 1008.5 |
| 20260904094610 | 54 | 17 | 7.0 | 11.0 | 0.00 | 0.00 | 0.00 | 58 | 1008.7 |
| 20260904093149 | 54 | 39 | 3.0 | 11.0 | 0.00 | 0.00 | 0.00 | 59 | 1008.8 |
| 20260904091553 | 52 | 12 | 6.0 | 9.0 | 0.00 | 0.00 | 0.00 | 61 | 1008.9 |
| 20260904090058 | 52 | 26 | 6.0 | 10.0 | 0.00 | 0.00 | 0.00 | 61 | 1009.0 |
| 20260904084649 | 54 | 49 | 8.0 | 12.0 | 0.00 | 0.00 | 0.00 | 57 | 1009.0 |
| 20260904083036 | 54 | 57 | 10.0 | 13.0 | 0.00 | 0.00 | 0.00 | 57 | 1009.3 |
| 20260904081534 | 55 | 51 | 10.0 | 13.0 | 0.00 | 0.00 | 0.00 | 56 | 1009.5 |
| 20260904080040 | 55 | 51 | 9.0 | 12.0 | 0.00 | 0.00 | 0.00 | 57 | 1009.6 |
| 20260904074537 | 56 | 40 | 8.0 | 10.0 | 0.00 | 0.00 | 0.00 | 55 | 1009.9 |
| 20260904073036 | 57 | 51 | 9.0 | 12.0 | 0.00 | 0.00 | 0.00 | 54 | 1010.0 |
| 20260904071537 | 57 | 54 | 10.0 | 12.0 | 0.00 | 0.00 | 0.00 | 55 | 1010.1 |
| 20260904070042 | 56 | 48 | 6.0 | 10.0 | 0.00 | 0.00 | 0.00 | 55 | 1010.0 |
| 20260904064538 | 57 | 46 | 6.0 | 10.0 | 0.00 | 0.00 | 0.00 | 53 | 1010.1 |
| 20260904063045 | 58 | 43 | 7.0 | 10.0 | 0.00 | 0.00 | 0.00 | 51 | 1010.1 |
| 20260904061536 | 58 | 41 | 5.0 | 9.0 | 0.00 | 0.00 | 0.00 | 52 | 1010.3 |
| 20260904060109 | 58 | 36 | 5.0 | 9.0 | 0.00 | 0.00 | 0.00 | 52 | 1010.3 |
| 20260904054540 | 58 | 11 | 4.0 | 6.0 | 0.00 | 0.00 | 0.00 | 53 | 1010.4 |
| 20260904053126 | 57 | 13 | 5.0 | 8.0 | 0.00 | 0.00 | 0.00 | 55 | 1010.4 |
| 20260904051605 | 57 | 5 | 6.0 | 9.0 | 0.00 | 0.00 | 0.00 | 55 | 1010.4 |
| 20260904050045 | 56 | 13 | 4.0 | 6.0 | 0.00 | 0.00 | 0.00 | 55 | 1010.4 |
| 20260904044557 | 55 | 18 | 3.0 | 6.0 | 0.00 | 0.00 | 0.00 | 56 | 1010.7 |
| 20260904043043 | 54 | 18 | 4.0 | 6.0 | 0.00 | 0.00 | 0.00 | 57 | 1010.8 |
| 20260904041543 | 54 | 350 | 3.0 | 5.0 | 0.00 | 0.00 | 0.00 | 57 | 1010.7 |
| 20260904040053 | 56 | 21 | 3.0 | 6.0 | 0.00 | 0.00 | 0.00 | 53 | 1010.7 |
| 20260904034546 | 56 | 13 | 4.0 | 5.0 | 0.00 | 0.00 | 0.00 | 52 | 1010.8 |
| 20260904033100 | 57 | 16 | 3.0 | 6.0 | 0.00 | 0.00 | 0.00 | 50 | 1010.8 |
| 20260904031544 | 59 | 16 | 4.0 | 6.0 | 0.00 | 0.00 | 0.00 | 48 | 1010.8 |
| 20260904030046 | 60 | 5 | 5.0 | 8.0 | 0.00 | 0.00 | 0.00 | 47 | 1010.5 |
| 20260904024556 | 60 | 10 | 6.0 | 9.0 | 0.00 | 0.00 | 0.00 | 47 | 1010.1 |
| 20260904023053 | 61 | 12 | 4.0 | 8.0 | 0.00 | 0.00 | 0.00 | 46 | 1010.2 |
| 20260904021542 | 62 | 22 | 4.0 | 6.0 | 0.00 | 0.00 | 0.00 | 43 | 1010.0 |
| 20260904020050 | 64 | 360 | 5.0 | 9.0 | 0.00 | 0.00 | 0.00 | 41 | 1010.0 |
| 20260904014559 | 67 | 360 | 5.0 | 10.0 | 0.00 | 0.00 | 0.00 | 38 | 1009.9 |
| 20260904013046 | 69 | 335 | 9.0 | 14.0 | 0.00 | 0.00 | 0.00 | 36 | 1009.8 |
| 20260904011551 | 72 | 325 | 10.0 | 14.0 | 0.00 | 0.00 | 0.00 | 33 | 1010.0 |
| 20260904010058 | 73 | 320 | 9.0 | 14.0 | 0.00 | 0.00 | 0.00 | 32 | 1009.8 |
| 20260904004551 | 74 | 296 | 10.0 | 14.0 | 0.00 | 0.00 | 0.00 | 31 | 1009.7 |
| 20260904003048 | 75 | 292 | 10.0 | 16.0 | 0.00 | 0.00 | 0.00 | 31 | 1009.7 |
| 20260904001544 | 76 | 293 | 11.0 | 15.0 | 0.00 | 0.00 | 0.00 | 29 | 1009.4 |
| 20260904000111 | 76 | 299 | 6.0 | 16.0 | 0.00 | 0.00 | 0.00 | 29 | 1009.2 |
| 20260903234546 | 76 | 275 | 12.0 | 19.0 | 0.00 | 0.01 | 0.00 | 28 | 1009.2 |
| 20260903233119 | 76 | 259 | 14.0 | 21.0 | 0.00 | 0.01 | 0.00 | 26 | 1009.2 |
| 20260903231550 | 77 | 259 | 15.0 | 22.0 | 0.00 | 0.01 | 0.00 | 25 | 1009.1 |
| 20260903230106 | 77 | 252 | 22.0 | 29.0 | 0.00 | 0.01 | 0.00 | 25 | 1009.2 |
| 20260903224552 | 77 | 248 | 19.0 | 31.0 | 0.00 | 0.02 | 0.00 | 25 | 1009.1 |
| 20260903223128 | 78 | 234 | 16.0 | 27.0 | 0.00 | 0.02 | 0.00 | 25 | 1008.9 |
| 20260903221548 | 77 | 245 | 16.0 | 26.0 | 0.00 | 0.02 | 0.00 | 25 | 1008.8 |
| 20260903220057 | 78 | 248 | 22.0 | 32.0 | 0.00 | 0.02 | 0.00 | 25 | 1008.7 |
| 20260903214602 | 77 | 239 | 19.0 | 28.0 | 0.00 | 0.02 | 0.00 | 26 | 1008.8 |
| 20260903213105 | 77 | 254 | 18.0 | 26.0 | 0.00 | 0.02 | 0.00 | 26 | 1008.6 |